owner,sensor,date,latitude,longitude,vertical_datum,direction_of_sea_water_velocity,sea_water_speed,upward_sea_water_velocity,qcFlag 
TABS,ioos:station:wmo:42048:1,2000-08-01T00:00:00Z,27.9396,-96.8429,2.0,155.2783773,8.201670562,-99999.0,'11133222,11111222,99999999' 
TABS,ioos:station:wmo:42048:1,2000-08-01T00:30:00Z,27.9396,-96.8429,2.0,168.6898835,8.362392002,-99999.0,'11133222,11111222,99999999' 
TABS,ioos:station:wmo:42048:1,2000-08-01T01:00:00Z,27.9396,-96.8429,2.0,162.153517,9.234338092,-99999.0,'11133222,11111222,99999999' 
TABS,ioos:station:wmo:42048:1,2000-08-01T01:30:00Z,27.9396,-96.8429,2.0,133.5581946,8.431381856,-99999.0,'11133222,11111222,99999999' 
TABS,ioos:station:wmo:42048:1,2000-08-01T02:00:00Z,27.9396,-96.8429,2.0,127.6444036,4.142378544,-99999.0,'11133222,11111222,99999999' 
TABS,ioos:station:wmo:42048:1,2000-08-01T02:30:00Z,27.9396,-96.8429,2.0,179.9997895,4.32,-99999.0,'11133222,11111222,99999999' 
TABS,ioos:station:wmo:42048:1,2000-08-01T03:00:00Z,27.9396,-96.8429,2.0,208.4057905,6.264223815,-99999.0,'11133222,11111222,99999999' 
TABS,ioos:station:wmo:42048:1,2000-08-01T03:30:00Z,27.9396,-96.8429,2.0,214.5320314,8.679222315,-99999.0,'11133222,11111222,99999999' 
TABS,ioos:station:wmo:42048:1,2000-08-01T04:00:00Z,27.9396,-96.8429,2.0,248.1761243,9.630160954,-99999.0,'11133222,11111222,99999999' 
TABS,ioos:station:wmo:42048:1,2000-08-01T04:30:00Z,27.9396,-96.8429,2.0,258.259041,10.95927917,-99999.0,'11111222,11111222,99999999' 
TABS,ioos:station:wmo:42048:1,2000-08-01T05:00:00Z,27.9396,-96.8429,2.0,288.8277564,13.85110104,-99999.0,'11111222,11111222,99999999' 
TABS,ioos:station:wmo:42048:1,2000-08-01T05:30:00Z,27.9396,-96.8429,2.0,292.1326087,13.82896236,-99999.0,'11111222,11111222,99999999' 
TABS,ioos:station:wmo:42048:1,2000-08-01T06:00:00Z,27.9396,-96.8429,2.0,295.9246447,11.59697374,-99999.0,'11111222,11111222,99999999' 
TABS,ioos:station:wmo:42048:1,2000-08-01T06:30:00Z,27.9396,-96.8429,2.0,297.7672402,12.79312315,-99999.0,'11111222,11111222,99999999' 
TABS,ioos:station:wmo:42048:1,2000-08-01T07:00:00Z,27.9396,-96.8429,2.0,304.3702133,14.25957222,-99999.0,'11111222,11111222,99999999' 
TABS,ioos:station:wmo:42048:1,2000-08-01T07:30:00Z,27.9396,-96.8429,2.0,311.4005449,15.09114972,-99999.0,'11111222,11111222,99999999' 
TABS,ioos:station:wmo:42048:1,2000-08-01T08:00:00Z,27.9396,-96.8429,2.0,332.8465882,13.05932617,-99999.0,'11111222,11111222,99999999' 
TABS,ioos:station:wmo:42048:1,2000-08-01T08:30:00Z,27.9396,-96.8429,2.0,323.9788621,14.18155492,-99999.0,'11111222,11111222,99999999' 
TABS,ioos:station:wmo:42048:1,2000-08-01T09:00:00Z,27.9396,-96.8429,2.0,319.3199687,12.57980922,-99999.0,'11111222,11111222,99999999' 
TABS,ioos:station:wmo:42048:1,2000-08-01T09:30:00Z,27.9396,-96.8429,2.0,333.4519403,15.32601057,-99999.0,'11111222,11111222,99999999' 
TABS,ioos:station:wmo:42048:1,2000-08-01T10:00:00Z,27.9396,-96.8429,2.0,335.695718,17.00735135,-99999.0,'11111222,11111222,99999999' 
TABS,ioos:station:wmo:42048:1,2000-08-01T10:30:00Z,27.9396,-96.8429,2.0,337.6651694,11.76245298,-99999.0,'11111222,11111222,99999999' 
TABS,ioos:station:wmo:42048:1,2000-08-01T11:00:00Z,27.9396,-96.8429,2.0,342.8630424,14.66091743,-99999.0,'11111222,11111222,99999999' 
TABS,ioos:station:wmo:42048:1,2000-08-01T11:30:00Z,27.9396,-96.8429,2.0,352.0455342,12.93445785,-99999.0,'11111222,11111222,99999999' 
TABS,ioos:station:wmo:42048:1,2000-08-01T12:00:00Z,27.9396,-96.8429,2.0,355.0138883,11.96528311,-99999.0,'11111222,11111222,99999999' 
TABS,ioos:station:wmo:42048:1,2000-08-01T12:30:00Z,27.9396,-96.8429,2.0,18.96736488,10.55297588,-99999.0,'11111222,11111222,99999999' 
TABS,ioos:station:wmo:42048:1,2000-08-01T13:00:00Z,27.9396,-96.8429,2.0,6.427934484,7.949974843,-99999.0,'11133222,11111222,99999999' 
TABS,ioos:station:wmo:42048:1,2000-08-01T13:30:00Z,27.9396,-96.8429,2.0,344.7865217,8.497817367,-99999.0,'11133222,11111222,99999999' 
TABS,ioos:station:wmo:42048:1,2000-08-01T14:00:00Z,27.9396,-96.8429,2.0,95.60843206,6.13938922,-99999.0,'11133222,11111222,99999999' 
TABS,ioos:station:wmo:42048:1,2000-08-01T14:30:00Z,27.9396,-96.8429,2.0,124.7027703,4.707366567,-99999.0,'11133222,11111222,99999999' 
TABS,ioos:station:wmo:42048:1,2000-08-01T15:00:00Z,27.9396,-96.8429,2.0,145.4013836,5.248123474,-99999.0,'11133222,11111222,99999999' 
TABS,ioos:station:wmo:42048:1,2000-08-01T15:30:00Z,27.9396,-96.8429,2.0,179.9997895,5.51,-99999.0,'11133222,11111222,99999999' 
TABS,ioos:station:wmo:42048:1,2000-08-01T16:00:00Z,27.9396,-96.8429,2.0,183.71507,4.629730014,-99999.0,'11133222,11111222,99999999' 
TABS,ioos:station:wmo:42048:1,2000-08-01T16:30:00Z,27.9396,-96.8429,2.0,191.2504447,3.792888082,-99999.0,'11133222,11111222,99999999' 
TABS,ioos:station:wmo:42048:1,2000-08-01T17:00:00Z,27.9396,-96.8429,2.0,199.133388,3.630564694,-99999.0,'11133222,11111222,99999999' 
TABS,ioos:station:wmo:42048:1,2000-08-01T17:30:00Z,27.9396,-96.8429,2.0,234.5313076,3.84314975,-99999.0,'11133222,11111222,99999999' 
TABS,ioos:station:wmo:42048:1,2000-08-01T18:00:00Z,27.9396,-96.8429,2.0,199.9407615,3.489197615,-99999.0,'11133222,11111222,99999999' 
TABS,ioos:station:wmo:42048:1,2000-08-01T18:30:00Z,27.9396,-96.8429,2.0,221.2877192,3.167412193,-99999.0,'11133222,11111222,99999999' 
TABS,ioos:station:wmo:42048:1,2000-08-01T19:00:00Z,27.9396,-96.8429,2.0,240.2843698,4.801385217,-99999.0,'11133222,11111222,99999999' 
TABS,ioos:station:wmo:42048:1,2000-08-01T19:30:00Z,27.9396,-96.8429,2.0,241.5464064,4.071854614,-99999.0,'11133222,11111222,99999999' 
TABS,ioos:station:wmo:42048:1,2000-08-01T20:00:00Z,27.9396,-96.8429,2.0,248.4955396,6.083461186,-99999.0,'11133222,11111222,99999999' 
TABS,ioos:station:wmo:42048:1,2000-08-01T20:30:00Z,27.9396,-96.8429,2.0,259.0665272,8.646947438,-99999.0,'11133222,11111222,99999999' 
TABS,ioos:station:wmo:42048:1,2000-08-01T21:00:00Z,27.9396,-96.8429,2.0,251.5646734,9.897929076,-99999.0,'11133222,11111222,99999999' 
TABS,ioos:station:wmo:42048:1,2000-08-01T21:30:00Z,27.9396,-96.8429,2.0,263.6711239,10.79578622,-99999.0,'11111222,11111222,99999999' 
TABS,ioos:station:wmo:42048:1,2000-08-01T22:00:00Z,27.9396,-96.8429,2.0,274.7322265,8.970574118,-99999.0,'11133222,11111222,99999999' 
TABS,ioos:station:wmo:42048:1,2000-08-01T22:30:00Z,27.9396,-96.8429,2.0,286.296947,10.08520203,-99999.0,'11111222,11111222,99999999' 
TABS,ioos:station:wmo:42048:1,2000-08-01T23:00:00Z,27.9396,-96.8429,2.0,271.955145,8.795117964,-99999.0,'11133222,11111222,99999999' 
TABS,ioos:station:wmo:42048:1,2000-08-01T23:30:00Z,27.9396,-96.8429,2.0,240.8635057,8.872705337,-99999.0,'11133222,11111222,99999999' 
TABS,ioos:station:wmo:42048:1,2000-08-02T00:00:00Z,27.9396,-96.8429,2.0,247.3004308,8.88847006,-99999.0,'11133222,11111222,99999999' 
TABS,ioos:station:wmo:42048:1,2000-08-02T00:30:00Z,27.9396,-96.8429,2.0,258.4845093,8.21535757,-99999.0,'11133222,11111222,99999999' 
TABS,ioos:station:wmo:42048:1,2000-08-02T01:00:00Z,27.9396,-96.8429,2.0,276.4178557,10.64671311,-99999.0,'11111222,11111222,99999999' 
TABS,ioos:station:wmo:42048:1,2000-08-02T01:30:00Z,27.9396,-96.8429,2.0,274.1784663,10.15699267,-99999.0,'11111222,11111222,99999999' 
TABS,ioos:station:wmo:42048:1,2000-08-02T02:00:00Z,27.9396,-96.8429,2.0,278.8773951,9.655656373,-99999.0,'11133222,11111222,99999999' 
TABS,ioos:station:wmo:42048:1,2000-08-02T02:30:00Z,27.9396,-96.8429,2.0,282.8717274,8.708828854,-99999.0,'11133222,11111222,99999999' 
TABS,ioos:station:wmo:42048:1,2000-08-02T03:00:00Z,27.9396,-96.8429,2.0,283.2676933,11.02423694,-99999.0,'11111222,11111222,99999999' 
TABS,ioos:station:wmo:42048:1,2000-08-02T03:30:00Z,27.9396,-96.8429,2.0,281.9486526,7.921622309,-99999.0,'11133222,11111222,99999999' 
TABS,ioos:station:wmo:42048:1,2000-08-02T04:00:00Z,27.9396,-96.8429,2.0,289.3723969,11.21493647,-99999.0,'11111222,11111222,99999999' 
TABS,ioos:station:wmo:42048:1,2000-08-02T04:30:00Z,27.9396,-96.8429,2.0,295.7641245,9.593669788,-99999.0,'11133222,11111222,99999999' 
TABS,ioos:station:wmo:42048:1,2000-08-02T05:00:00Z,27.9396,-96.8429,2.0,303.2288543,10.32885279,-99999.0,'11111222,11111222,99999999' 
TABS,ioos:station:wmo:42048:1,2000-08-02T05:30:00Z,27.9396,-96.8429,2.0,307.1990579,10.10616643,-99999.0,'11111222,11111222,99999999' 
TABS,ioos:station:wmo:42048:1,2000-08-02T06:00:00Z,27.9396,-96.8429,2.0,304.7811126,8.887907515,-99999.0,'11133222,11111222,99999999' 
TABS,ioos:station:wmo:42048:1,2000-08-02T06:30:00Z,27.9396,-96.8429,2.0,313.8915062,10.96220781,-99999.0,'11111222,11111222,99999999' 
TABS,ioos:station:wmo:42048:1,2000-08-02T07:00:00Z,27.9396,-96.8429,2.0,306.0311756,12.15530337,-99999.0,'11111222,11111222,99999999' 
TABS,ioos:station:wmo:42048:1,2000-08-02T07:30:00Z,27.9396,-96.8429,2.0,314.3929641,10.00612313,-99999.0,'11111222,11111222,99999999' 
TABS,ioos:station:wmo:42048:1,2000-08-02T08:00:00Z,27.9396,-96.8429,2.0,333.7481871,11.46225545,-99999.0,'11111222,11111222,99999999' 
TABS,ioos:station:wmo:42048:1,2000-08-02T08:30:00Z,27.9396,-96.8429,2.0,328.285611,11.90816946,-99999.0,'11111222,11111222,99999999' 
TABS,ioos:station:wmo:42048:1,2000-08-02T09:00:00Z,27.9396,-96.8429,2.0,332.8358299,12.39743925,-99999.0,'11111222,11111222,99999999' 
TABS,ioos:station:wmo:42048:1,2000-08-02T09:30:00Z,27.9396,-96.8429,2.0,339.8357067,10.79144569,-99999.0,'11111222,11111222,99999999' 
TABS,ioos:station:wmo:42048:1,2000-08-02T10:00:00Z,27.9396,-96.8429,2.0,337.0617847,9.544762962,-99999.0,'11133222,11111222,99999999' 
TABS,ioos:station:wmo:42048:1,2000-08-02T10:30:00Z,27.9396,-96.8429,2.0,339.6431348,11.12482809,-99999.0,'11111222,11111222,99999999' 
TABS,ioos:station:wmo:42048:1,2000-08-02T11:00:00Z,27.9396,-96.8429,2.0,343.8151996,8.538407346,-99999.0,'11133222,11111222,99999999' 
TABS,ioos:station:wmo:42048:1,2000-08-02T11:30:00Z,27.9396,-96.8429,2.0,338.632792,7.355603306,-99999.0,'11133222,11111222,99999999' 
TABS,ioos:station:wmo:42048:1,2000-08-02T12:00:00Z,27.9396,-96.8429,2.0,334.6003959,6.597764773,-99999.0,'11133222,11111222,99999999' 
TABS,ioos:station:wmo:42048:1,2000-08-02T12:30:00Z,27.9396,-96.8429,2.0,354.843596,8.233322537,-99999.0,'11133222,11111222,99999999' 
TABS,ioos:station:wmo:42048:1,2000-08-02T13:00:00Z,27.9396,-96.8429,2.0,349.8516722,5.902346991,-99999.0,'11133222,11111222,99999999' 
TABS,ioos:station:wmo:42048:1,2000-08-02T13:30:00Z,27.9396,-96.8429,2.0,342.407827,3.440930107,-99999.0,'11133222,11111222,99999999' 
TABS,ioos:station:wmo:42048:1,2000-08-02T14:00:00Z,27.9396,-96.8429,2.0,333.3760317,4.329029914,-99999.0,'11133222,11111222,99999999' 
TABS,ioos:station:wmo:42048:1,2000-08-02T14:30:00Z,27.9396,-96.8429,2.0,328.0057004,5.624348851,-99999.0,'11133222,11111222,99999999' 
TABS,ioos:station:wmo:42048:1,2000-08-02T15:00:00Z,27.9396,-96.8429,2.0,299.6565855,2.405036382,-99999.0,'11133222,11111222,99999999' 
TABS,ioos:station:wmo:42048:1,2000-08-02T15:30:00Z,27.9396,-96.8429,2.0,302.6662391,2.482680004,-99999.0,'11133222,11111222,99999999' 
TABS,ioos:station:wmo:42048:1,2000-08-02T16:00:00Z,27.9396,-96.8429,2.0,233.1297677,0.75,-99999.0,'11133222,11111222,99999999' 
TABS,ioos:station:wmo:42048:1,2000-08-02T16:30:00Z,27.9396,-96.8429,2.0,295.4566004,3.466554485,-99999.0,'11133222,11111222,99999999' 
TABS,ioos:station:wmo:42048:1,2000-08-02T17:00:00Z,27.9396,-96.8429,2.0,263.612477,4.045108157,-99999.0,'11133222,11111222,99999999' 
TABS,ioos:station:wmo:42048:1,2000-08-02T17:30:00Z,27.9396,-96.8429,2.0,287.2721231,2.492388413,-99999.0,'11133222,11111222,99999999' 
TABS,ioos:station:wmo:42048:1,2000-08-02T18:00:00Z,27.9396,-96.8429,2.0,270.0004209,2.09,-99999.0,'11133222,11111222,99999999' 
TABS,ioos:station:wmo:42048:1,2000-08-02T18:30:00Z,27.9396,-96.8429,2.0,245.7878814,3.26741488,-99999.0,'11133222,11111222,99999999' 
TABS,ioos:station:wmo:42048:1,2000-08-02T19:00:00Z,27.9396,-96.8429,2.0,242.3468287,3.533624202,-99999.0,'11133222,11111222,99999999' 
TABS,ioos:station:wmo:42048:1,2000-08-02T19:30:00Z,27.9396,-96.8429,2.0,265.2094596,3.592547842,-99999.0,'11133222,11111222,99999999' 
TABS,ioos:station:wmo:42048:1,2000-08-02T20:00:00Z,27.9396,-96.8429,2.0,283.5973827,5.061867244,-99999.0,'11133222,11111222,99999999' 
TABS,ioos:station:wmo:42048:1,2000-08-02T20:30:00Z,27.9396,-96.8429,2.0,295.2683717,5.927098784,-99999.0,'11133222,11111222,99999999' 
TABS,ioos:station:wmo:42048:1,2000-08-02T21:00:00Z,27.9396,-96.8429,2.0,298.3515347,8.465394261,-99999.0,'11133222,11111222,99999999' 
TABS,ioos:station:wmo:42048:1,2000-08-02T21:30:00Z,27.9396,-96.8429,2.0,305.9156143,8.643199639,-99999.0,'11133222,11111222,99999999' 
TABS,ioos:station:wmo:42048:1,2000-08-02T22:00:00Z,27.9396,-96.8429,2.0,308.8128182,8.791052269,-99999.0,'11133222,11111222,99999999' 
TABS,ioos:station:wmo:42048:1,2000-08-02T22:30:00Z,27.9396,-96.8429,2.0,317.9469992,12.24206273,-99999.0,'11111222,11111222,99999999' 
TABS,ioos:station:wmo:42048:1,2000-08-02T23:00:00Z,27.9396,-96.8429,2.0,317.5770996,9.279552791,-99999.0,'11133222,11111222,99999999' 
TABS,ioos:station:wmo:42048:1,2000-08-02T23:30:00Z,27.9396,-96.8429,2.0,303.6575472,9.671199512,-99999.0,'11133222,11111222,99999999' 
TABS,ioos:station:wmo:42048:1,2000-08-03T00:00:00Z,27.9396,-96.8429,2.0,313.9125544,11.17430087,-99999.0,'11111222,11111222,99999999' 
TABS,ioos:station:wmo:42048:1,2000-08-03T00:30:00Z,27.9396,-96.8429,2.0,303.6575472,9.671199512,-99999.0,'11133222,11111222,99999999' 
TABS,ioos:station:wmo:42048:1,2000-08-03T01:00:00Z,27.9396,-96.8429,2.0,290.2377417,9.048591051,-99999.0,'11133222,11111222,99999999' 
TABS,ioos:station:wmo:42048:1,2000-08-03T01:30:00Z,27.9396,-96.8429,2.0,295.0579777,10.2,-99999.0,'11111222,11111222,99999999' 
TABS,ioos:station:wmo:42048:1,2000-08-03T02:00:00Z,27.9396,-96.8429,2.0,276.0916519,8.387353575,-99999.0,'11133222,11111222,99999999' 
TABS,ioos:station:wmo:42048:1,2000-08-03T02:30:00Z,27.9396,-96.8429,2.0,293.0618865,9.87952428,-99999.0,'11133222,11111222,99999999' 
TABS,ioos:station:wmo:42048:1,2000-08-03T03:00:00Z,27.9396,-96.8429,2.0,285.0927327,8.026867384,-99999.0,'11133222,11111222,99999999' 
TABS,ioos:station:wmo:42048:1,2000-08-03T03:30:00Z,27.9396,-96.8429,2.0,292.2567551,9.821736099,-99999.0,'11133222,11111222,99999999' 
TABS,ioos:station:wmo:42048:1,2000-08-03T04:00:00Z,27.9396,-96.8429,2.0,285.8319774,10.37349025,-99999.0,'11111222,11111222,99999999' 
TABS,ioos:station:wmo:42048:1,2000-08-03T04:30:00Z,27.9396,-96.8429,2.0,284.7173712,8.777983823,-99999.0,'11133222,11111222,99999999' 
TABS,ioos:station:wmo:42048:1,2000-08-03T05:00:00Z,27.9396,-96.8429,2.0,282.54858,9.619781702,-99999.0,'11133222,11111222,99999999' 
TABS,ioos:station:wmo:42048:1,2000-08-03T05:30:00Z,27.9396,-96.8429,2.0,273.1999531,8.062567829,-99999.0,'11133222,11111222,99999999' 
TABS,ioos:station:wmo:42048:1,2000-08-03T06:00:00Z,27.9396,-96.8429,2.0,285.0318079,10.33357634,-99999.0,'11111222,11111222,99999999' 
TABS,ioos:station:wmo:42048:1,2000-08-03T06:30:00Z,27.9396,-96.8429,2.0,286.9564216,9.189477678,-99999.0,'11133222,11111222,99999999' 
TABS,ioos:station:wmo:42048:1,2000-08-03T07:00:00Z,27.9396,-96.8429,2.0,287.5658136,9.377233067,-99999.0,'11133222,11111222,99999999' 
TABS,ioos:station:wmo:42048:1,2000-08-03T07:30:00Z,27.9396,-96.8429,2.0,288.6376739,11.64041666,-99999.0,'11111222,11111222,99999999' 
TABS,ioos:station:wmo:42048:1,2000-08-03T08:00:00Z,27.9396,-96.8429,2.0,301.3396482,12.03602925,-99999.0,'11111222,11111222,99999999' 
TABS,ioos:station:wmo:42048:1,2000-08-03T08:30:00Z,27.9396,-96.8429,2.0,321.2028512,9.751517831,-99999.0,'11133222,11111222,99999999' 
TABS,ioos:station:wmo:42048:1,2000-08-03T09:00:00Z,27.9396,-96.8429,2.0,304.4320036,9.214342082,-99999.0,'11133222,11111222,99999999' 
TABS,ioos:station:wmo:42048:1,2000-08-03T09:30:00Z,27.9396,-96.8429,2.0,310.246626,10.15362497,-99999.0,'11111222,11111222,99999999' 
TABS,ioos:station:wmo:42048:1,2000-08-03T10:00:00Z,27.9396,-96.8429,2.0,317.5195285,9.491475122,-99999.0,'11133222,11111222,99999999' 
TABS,ioos:station:wmo:42048:1,2000-08-03T10:30:00Z,27.9396,-96.8429,2.0,312.8651786,8.540708402,-99999.0,'11133222,11111222,99999999' 
TABS,ioos:station:wmo:42048:1,2000-08-03T11:00:00Z,27.9396,-96.8429,2.0,315.0003157,5.897270555,-99999.0,'11133222,11111222,99999999' 
TABS,ioos:station:wmo:42048:1,2000-08-03T11:30:00Z,27.9396,-96.8429,2.0,308.9657606,4.977328601,-99999.0,'11133222,11111222,99999999' 
TABS,ioos:station:wmo:42048:1,2000-08-03T12:00:00Z,27.9396,-96.8429,2.0,319.2125208,4.33212419,-99999.0,'11133222,11111222,99999999' 
TABS,ioos:station:wmo:42048:1,2000-08-03T12:30:00Z,27.9396,-96.8429,2.0,282.1513035,2.137896162,-99999.0,'11133222,11111222,99999999' 
TABS,ioos:station:wmo:42048:1,2000-08-03T13:00:00Z,27.9396,-96.8429,2.0,303.0647411,3.555840266,-99999.0,'11133222,11111222,99999999' 
TABS,ioos:station:wmo:42048:1,2000-08-03T13:30:00Z,27.9396,-96.8429,2.0,302.5054333,3.889280139,-99999.0,'11133222,11111222,99999999' 
TABS,ioos:station:wmo:42048:1,2000-08-03T14:00:00Z,27.9396,-96.8429,2.0,312.6777094,5.059970356,-99999.0,'11133222,11111222,99999999' 
TABS,ioos:station:wmo:42048:1,2000-08-03T14:30:00Z,27.9396,-96.8429,2.0,270.0004209,3.72,-99999.0,'11133222,11111222,99999999' 
TABS,ioos:station:wmo:42048:1,2000-08-03T15:00:00Z,27.9396,-96.8429,2.0,297.8612683,5.734744981,-99999.0,'11133222,11111222,99999999' 
TABS,ioos:station:wmo:42048:1,2000-08-03T15:30:00Z,27.9396,-96.8429,2.0,274.7905404,1.796273921,-99999.0,'11133222,11111222,99999999' 
TABS,ioos:station:wmo:42048:1,2000-08-03T16:00:00Z,27.9396,-96.8429,2.0,309.2516657,4.235658154,-99999.0,'11133222,11111222,99999999' 
TABS,ioos:station:wmo:42048:1,2000-08-03T16:30:00Z,27.9396,-96.8429,2.0,231.8787815,2.656633208,-99999.0,'11133222,11111222,99999999' 
TABS,ioos:station:wmo:42048:1,2000-08-03T17:00:00Z,27.9396,-96.8429,2.0,246.0569854,2.932319901,-99999.0,'11133222,11111222,99999999' 
TABS,ioos:station:wmo:42048:1,2000-08-03T17:30:00Z,27.9396,-96.8429,2.0,224.9996843,2.743574311,-99999.0,'11133222,11111222,99999999' 
TABS,ioos:station:wmo:42048:1,2000-08-03T18:00:00Z,27.9396,-96.8429,2.0,241.5117175,1.865931403,-99999.0,'11133222,11111222,99999999' 
TABS,ioos:station:wmo:42048:1,2000-08-15T00:00:00Z,27.9396,-96.8429,2.0,0.0,0.0,-99999.0,'11133222,11111222,99999999' 
TABS,ioos:station:wmo:42048:1,2000-08-15T04:30:00Z,27.9396,-96.8429,2.0,213.9983141,15.451398,-99999.0,'11111222,11111222,99999999' 
TABS,ioos:station:wmo:42048:1,2000-08-15T05:00:00Z,27.9396,-96.8429,2.0,218.2290315,15.17427099,-99999.0,'11111222,11111222,99999999' 
TABS,ioos:station:wmo:42048:1,2000-08-15T05:30:00Z,27.9396,-96.8429,2.0,213.2583433,16.57491176,-99999.0,'11111222,11111222,99999999' 
TABS,ioos:station:wmo:42048:1,2000-08-15T06:00:00Z,27.9396,-96.8429,2.0,218.1534604,18.56666098,-99999.0,'11111222,11111222,99999999' 
TABS,ioos:station:wmo:42048:1,2000-08-15T06:30:00Z,27.9396,-96.8429,2.0,230.9460473,17.26854076,-99999.0,'11111222,11111222,99999999' 
TABS,ioos:station:wmo:42048:1,2000-08-15T07:00:00Z,27.9396,-96.8429,2.0,219.5977856,14.4964306,-99999.0,'11111222,11111222,99999999' 
TABS,ioos:station:wmo:42048:1,2000-08-15T07:30:00Z,27.9396,-96.8429,2.0,217.8561962,13.59001472,-99999.0,'11111222,11111222,99999999' 
TABS,ioos:station:wmo:42048:1,2000-08-15T08:00:00Z,27.9396,-96.8429,2.0,223.7899607,15.0718048,-99999.0,'11111222,11111222,99999999' 
TABS,ioos:station:wmo:42048:1,2000-08-15T08:30:00Z,27.9396,-96.8429,2.0,215.4356741,20.30035714,-99999.0,'11111222,11111222,99999999' 
TABS,ioos:station:wmo:42048:1,2000-08-15T09:00:00Z,27.9396,-96.8429,2.0,228.8392717,12.67151135,-99999.0,'11111222,11111222,99999999' 
TABS,ioos:station:wmo:42048:1,2000-08-15T09:30:00Z,27.9396,-96.8429,2.0,220.2827733,11.52243898,-99999.0,'11111222,11111222,99999999' 
TABS,ioos:station:wmo:42048:1,2000-08-15T10:00:00Z,27.9396,-96.8429,2.0,226.3723205,8.855518054,-99999.0,'11133222,11111222,99999999' 
TABS,ioos:station:wmo:42048:1,2000-08-15T10:30:00Z,27.9396,-96.8429,2.0,209.042238,9.20779018,-99999.0,'11133222,11111222,99999999' 
TABS,ioos:station:wmo:42048:1,2000-08-15T11:00:00Z,27.9396,-96.8429,2.0,199.2003672,10.88553168,-99999.0,'11111222,11111222,99999999' 
TABS,ioos:station:wmo:42048:1,2000-08-15T11:30:00Z,27.9396,-96.8429,2.0,236.8730085,8.179449859,-99999.0,'11133222,11111222,99999999' 
TABS,ioos:station:wmo:42048:1,2000-08-15T12:00:00Z,27.9396,-96.8429,2.0,216.2702095,5.544303383,-99999.0,'11133222,11111222,99999999' 
TABS,ioos:station:wmo:42048:1,2000-08-15T12:30:00Z,27.9396,-96.8429,2.0,216.8577704,9.686000206,-99999.0,'11133222,11111222,99999999' 
TABS,ioos:station:wmo:42048:1,2000-08-15T13:00:00Z,27.9396,-96.8429,2.0,213.5118421,11.60993109,-99999.0,'11111222,11111222,99999999' 
TABS,ioos:station:wmo:42048:1,2000-08-15T13:30:00Z,27.9396,-96.8429,2.0,214.8641136,14.34478651,-99999.0,'11111222,11111222,99999999' 
TABS,ioos:station:wmo:42048:1,2000-08-15T14:00:00Z,27.9396,-96.8429,2.0,243.4559531,11.99426947,-99999.0,'11111222,11111222,99999999' 
TABS,ioos:station:wmo:42048:1,2000-08-15T14:30:00Z,27.9396,-96.8429,2.0,213.9786008,8.803203962,-99999.0,'11133222,11111222,99999999' 
TABS,ioos:station:wmo:42048:1,2000-08-15T15:00:00Z,27.9396,-96.8429,2.0,199.5508989,12.01261004,-99999.0,'11111222,11111222,99999999' 
TABS,ioos:station:wmo:42048:1,2000-08-15T15:30:00Z,27.9396,-96.8429,2.0,219.2292166,9.423990662,-99999.0,'11133222,11111222,99999999' 
TABS,ioos:station:wmo:42048:1,2000-08-15T16:00:00Z,27.9396,-96.8429,2.0,216.7032719,11.71204935,-99999.0,'11111222,11111222,99999999' 
TABS,ioos:station:wmo:42048:1,2000-08-15T16:30:00Z,27.9396,-96.8429,2.0,228.7467721,12.87565532,-99999.0,'11111222,11111222,99999999' 
TABS,ioos:station:wmo:42048:1,2000-08-15T17:00:00Z,27.9396,-96.8429,2.0,237.7617897,8.098450469,-99999.0,'11133222,11111222,99999999' 
TABS,ioos:station:wmo:42048:1,2000-08-15T17:30:00Z,27.9396,-96.8429,2.0,219.8739262,10.6846853,-99999.0,'11111222,11111222,99999999' 
TABS,ioos:station:wmo:42048:1,2000-08-15T18:00:00Z,27.9396,-96.8429,2.0,223.4816038,8.007259206,-99999.0,'11133222,11111222,99999999' 
TABS,ioos:station:wmo:42048:1,2000-08-15T18:30:00Z,27.9396,-96.8429,2.0,226.6488155,3.685552876,-99999.0,'11133222,11111222,99999999' 
TABS,ioos:station:wmo:42048:1,2000-08-15T19:00:00Z,27.9396,-96.8429,2.0,199.133388,3.630564694,-99999.0,'11133222,11111222,99999999' 
TABS,ioos:station:wmo:42048:1,2000-08-15T19:30:00Z,27.9396,-96.8429,2.0,179.9997895,6.11,-99999.0,'11133222,11111222,99999999' 
TABS,ioos:station:wmo:42048:1,2000-08-15T20:00:00Z,27.9396,-96.8429,2.0,218.5421285,12.1971964,-99999.0,'11111222,11111222,99999999' 
TABS,ioos:station:wmo:42048:1,2000-08-15T20:30:00Z,27.9396,-96.8429,2.0,224.9996843,7.580184694,-99999.0,'11133222,11111222,99999999' 
TABS,ioos:station:wmo:42048:1,2000-08-15T21:00:00Z,27.9396,-96.8429,2.0,236.7273927,5.705243203,-99999.0,'11133222,11111222,99999999' 
TABS,ioos:station:wmo:42048:1,2000-08-15T21:30:00Z,27.9396,-96.8429,2.0,210.0922384,6.541712314,-99999.0,'11133222,11111222,99999999' 
TABS,ioos:station:wmo:42048:1,2000-08-15T22:00:00Z,27.9396,-96.8429,2.0,207.8331097,6.061229248,-99999.0,'11133222,11111222,99999999' 
TABS,ioos:station:wmo:42048:1,2000-08-15T22:30:00Z,27.9396,-96.8429,2.0,203.9754288,8.810158909,-99999.0,'11133222,11111222,99999999' 
TABS,ioos:station:wmo:42048:1,2000-08-15T23:00:00Z,27.9396,-96.8429,2.0,201.801148,8.831670284,-99999.0,'11133222,11111222,99999999' 
TABS,ioos:station:wmo:42048:1,2000-08-15T23:30:00Z,27.9396,-96.8429,2.0,215.5287254,7.692106344,-99999.0,'11133222,11111222,99999999' 
TABS,ioos:station:wmo:42048:1,2000-08-16T00:00:00Z,27.9396,-96.8429,2.0,215.7818397,7.901423922,-99999.0,'11133222,11111222,99999999' 
TABS,ioos:station:wmo:42048:1,2000-08-16T00:30:00Z,27.9396,-96.8429,2.0,214.5480758,8.146686443,-99999.0,'11133222,11111222,99999999' 
TABS,ioos:station:wmo:42048:1,2000-08-16T01:00:00Z,27.9396,-96.8429,2.0,213.4635529,10.53661236,-99999.0,'11111222,11111222,99999999' 
TABS,ioos:station:wmo:42048:1,2000-08-16T01:30:00Z,27.9396,-96.8429,2.0,207.3550133,9.727820928,-99999.0,'11133222,11111222,99999999' 